Location: Brunembert
(50.7122°N, 1.8935°E)
Time: 04:10:24
(UTC+00:00)

IGS 5A - Pass Details

Date: 22 April 2021
Orbit: 584 x 587 km, 97.6° (Epoch: 02 May)

Event Time Altitude Azimuth Distance (km) Brightness Sun altitude
Exits shadow 19:54:22 10° 142° (SE) 1,932 5.5 -8.6°
Reaches altitude 10° 19:54:26 10° 142° (SE) 1,904 5.5 -8.6°
Maximum altitude 19:58:22 45° 70° (ENE) 811 3.9 -9.2°
Drops below altitude 10° 20:02:20 10° 358° (N) 1,920 6.6 -9.7°
Sets 20:04:34 0° 352° (N) 2,826 7.6 -10.0°
